Location: G�migny
(47.9646°N, 1.6950°E)
Time: 00:18:31
(UTC+00:00)

STARLINK-34 - Pass Details

Date: 23 October 2019
Orbit: 548 x 552 km, 53.0° (Epoch: 11 November)

Event Time Altitude Azimuth Distance (km) Brightness Sun altitude
Rises 19:07:25 0° 295° (WNW) 2,722 8.4 -23.5°
Reaches altitude 10° 19:09:40 10° 298° (WNW) 1,827 7.2 -23.9°
Enters shadow 19:13:14 57° 336° (NNW) 651 4.0 -24.5°
